TimeEDT,TemperatureF,Dew PointF,Humidity,Sea Level PressureIn,VisibilityMPH,Wind Direction,Wind SpeedMPH,Gust SpeedMPH,PrecipitationIn,Events,Conditions,WindDirDegrees,DateUTC
12:52 AM,51.1,45.0,80,30.27,10.0,ESE,3.5,-,N/A,,Clear,110,2013-04-29 04:52:00
1:52 AM,51.1,46.0,83,30.25,10.0,East,3.5,-,N/A,,Clear,100,2013-04-29 05:52:00
2:52 AM,50.0,46.0,86,30.24,10.0,East,3.5,-,N/A,,Clear,90,2013-04-29 06:52:00
3:52 AM,51.1,48.0,89,30.23,10.0,East,4.6,-,N/A,,Clear,90,2013-04-29 07:52:00
4:52 AM,51.1,48.0,89,30.23,10.0,East,4.6,-,N/A,,Partly Cloudy,80,2013-04-29 08:52:00
5:52 AM,51.1,46.9,86,30.24,10.0,ENE,3.5,-,N/A,,Mostly Cloudy,70,2013-04-29 09:52:00
6:52 AM,51.1,46.9,86,30.25,10.0,ENE,5.8,-,N/A,,Mostly Cloudy,70,2013-04-29 10:52:00
7:52 AM,52.0,48.0,86,30.26,10.0,East,6.9,-,N/A,,Overcast,80,2013-04-29 11:52:00
8:52 AM,52.0,48.0,86,30.26,10.0,East,9.2,-,N/A,,Overcast,90,2013-04-29 12:52:00
9:52 AM,52.0,48.0,86,30.26,10.0,East,6.9,-,0.01,Rain,Light Rain,90,2013-04-29 13:52:00
10:52 AM,54.0,48.9,83,30.26,10.0,East,6.9,-,0.00,,Overcast,100,2013-04-29 14:52:00
11:52 AM,54.0,46.0,75,30.26,10.0,East,6.9,-,N/A,,Overcast,100,2013-04-29 15:52:00
12:52 PM,55.0,45.0,69,30.25,10.0,East,5.8,-,N/A,,Overcast,100,2013-04-29 16:52:00
1:52 PM,55.0,44.1,67,30.24,10.0,East,8.1,-,N/A,,Overcast,80,2013-04-29 17:52:00
2:52 PM,54.0,46.0,75,30.24,10.0,East,8.1,-,N/A,,Overcast,90,2013-04-29 18:52:00
3:52 PM,55.9,45.0,67,30.23,10.0,SE,6.9,-,N/A,,Overcast,140,2013-04-29 19:52:00
4:52 PM,55.9,42.1,60,30.22,10.0,ESE,6.9,-,N/A,,Overcast,120,2013-04-29 20:52:00
5:52 PM,55.9,41.0,57,30.22,10.0,ESE,6.9,-,N/A,,Overcast,110,2013-04-29 21:52:00
6:52 PM,54.0,44.1,69,30.22,10.0,East,5.8,-,N/A,,Overcast,100,2013-04-29 22:52:00
7:52 PM,53.1,44.1,71,30.23,10.0,ESE,5.8,-,N/A,,Overcast,110,2013-04-29 23:52:00
8:52 PM,53.1,45.0,74,30.24,10.0,East,5.8,-,N/A,,Overcast,100,2013-04-30 00:52:00
9:52 PM,52.0,46.0,80,30.26,10.0,East,8.1,-,N/A,,Overcast,80,2013-04-30 01:52:00
10:52 PM,51.1,46.0,83,30.26,10.0,ENE,8.1,-,N/A,,Overcast,70,2013-04-30 02:52:00
11:52 PM,51.1,46.0,83,30.25,10.0,ENE,6.9,-,N/A,,Overcast,70,2013-04-30 03:52:00